Location: Lane
(33.5226°N, 79.8788°W)
Time: 16:36:15
(UTC+00:00)

Transit 2A - Pass Details

Date: 26 September 2022
Orbit: 598 x 959 km, 66.7° (Epoch: 06 December)

Event Time Altitude Azimuth Distance (km) Brightness Sun altitude
Rises 06:07:25 0° 228° (SW) 2,991 - -55.1°
Reaches altitude 10° 06:10:00 10° 239° (WSW) 2,034 - -54.9°
Maximum altitude 06:14:01 30° 301° (WNW) 1,103 - -54.5°
Drops below altitude 10° 06:17:53 10° 4° (N) 1,949 - -54.1°
Sets 06:20:19 0° 15° (NNE) 2,845 - -53.9°
